Weather History for Sulphur, LA

Change the Weather History Date:

Friday, May 4, 2012

  Actual Average (KLCH) Record (KLCH)
Temperature  
Mean Temperature 77 °F 73 °F  
Max Temperature 86 °F 82 °F 91 °F (1943)
Min Temperature 68 °F 63 °F 42 °F (2013)
Degree Days  
Heating Degree Days 0 0  
Month to date heating degree days 0  
Since 1 July heating degree days 1489  
Cooling Degree Days 12 8  
Month to date cooling degree days 30  
Year to date cooling degree days 238  
Growing Degree Days 27 (Base 50)    
Moisture  
Dew Point 71 °F    
Average Humidity 82    
Maximum Humidity 100    
Minimum Humidity 58    
Precipitation  
Precipitation 0.00 in 0.14 in 1.60 in (1944)
Month to date precipitation 0.54  
Year to date precipitation 16.22  
Snow  
Snow 0.00 in 0.00 in 0.00 in ()
Month to date snowfall 0.0  
Since 1 July snowfall 0.1  
Snow Depth -    
Sea Level Pressure  
Sea Level Pressure 30.00 in    
Wind  
Wind Speed 4 mph (SSE)    
Max Wind Speed 13 mph    
Max Gust Speed 18 mph    
Visibility 9 miles    
Events      
T = Trace of Precipitation, MM = Missing Value Source: NWS Daily Summary

Daily Weather History Graph

Daily Weather History Graph

Search for Another Location

Airport:

Trip Planner

Search our weather history database for the weather conditions in past years. The results will help you decide how hot, cold, wet, or windy it might be!

Date:

Astronomy

May. 04, 2012 Rise Set
Actual Time 6:27 AM CDT 7:53 PM CDT
Civil Twilight 6:01 AM CDT 8:19 PM CDT
Nautical Twilight 5:31 AM CDT 8:49 PM CDT
Astronomical Twilight 4:59 AM CDT 9:21 PM CDT
Moon 6:34 PM CDT (5/4) 5:02 AM CDT (5/4)
Length of Visible Light 14h 17m
Length of Day
13h 25m
Waxing Gibbous, 97% of the Moon is Illuminated
May 4
Waxing Gibbous
May 5
Full
May 12
Last Quarter
May 20
New
May 28
First Quarter

Hourly Weather History & Observations

Time (CDT) Temp. Heat Index Dew Point Humidity Pressure Visibility Wind Dir Wind Speed Gust Speed Precip Events Conditions
12:15 AM 73.4 °F - 71.6 °F 94% 30.02 in 10.0 mi Calm Calm - N/A   Clear
12:35 AM 73.4 °F - 71.6 °F 94% 30.02 in 10.0 mi Calm Calm - N/A   Clear
12:55 AM 73.4 °F - 71.6 °F 94% 30.02 in 10.0 mi Calm Calm - N/A   Clear
1:15 AM 73.4 °F - 71.6 °F 94% 30.01 in 10.0 mi South 4.6 mph - N/A   Clear
1:35 AM 73.4 °F - 71.6 °F 94% 30.00 in 10.0 mi South 3.5 mph - N/A   Clear
1:55 AM 73.4 °F - 71.6 °F 94% 30.00 in 10.0 mi Calm Calm - N/A   Clear
2:15 AM 71.6 °F - 69.8 °F 94% 30.00 in 5.0 mi Calm Calm - N/A   Clear
2:35 AM 69.8 °F - 69.8 °F 100% 29.99 in 7.0 mi Calm Calm - N/A   Clear
2:55 AM 69.8 °F - 69.8 °F 100% 29.99 in 4.0 mi Calm Calm - N/A   Scattered Clouds
3:15 AM 69.8 °F - 69.8 °F 100% 29.99 in 4.0 mi Calm Calm - N/A   Clear
3:35 AM 69.8 °F - 69.8 °F 100% 29.99 in 1.5 mi Calm Calm - N/A   Mist
3:55 AM 69.8 °F - 69.8 °F 100% 29.99 in 0.8 mi Calm Calm - N/A   Mostly Cloudy
4:15 AM 69.8 °F - 69.8 °F 100% 29.98 in 3.0 mi Calm Calm - N/A   Clear
4:35 AM 69.8 °F - 69.8 °F 100% 29.98 in 1.2 mi Calm Calm - N/A   Mist
4:55 AM 69.8 °F - 69.8 °F 100% 29.99 in 1.2 mi Calm Calm - N/A   Mist
5:15 AM 69.8 °F - 69.8 °F 100% 29.99 in 3.0 mi Calm Calm - N/A   Clear
5:35 AM 68.0 °F - 68.0 °F 100% 30.00 in 7.0 mi Calm Calm - N/A   Scattered Clouds
5:55 AM 69.8 °F - 69.8 °F 100% 30.00 in 10.0 mi Calm Calm - N/A   Clear
6:15 AM 68.0 °F - 68.0 °F 100% 30.00 in 3.0 mi Calm Calm - N/A   Clear
6:35 AM 69.8 °F - 69.8 °F 100% 30.00 in 1.2 mi Calm Calm - N/A   Mist
7:15 AM 69.8 °F - 69.8 °F 100% 30.00 in 10.0 mi Calm Calm - N/A   Clear
7:35 AM 73.4 °F - 73.4 °F 100% 30.00 in 7.0 mi Calm Calm - N/A   Clear
7:55 AM 77.0 °F - 75.2 °F 94% 30.00 in 10.0 mi SSE 6.9 mph - N/A   Clear
8:15 AM 78.8 °F - 75.2 °F 89% 30.01 in 10.0 mi South 8.1 mph - N/A   Mostly Cloudy
8:35 AM 78.8 °F - 73.4 °F 83% 30.03 in 10.0 mi SW 5.8 mph - N/A   Overcast
8:55 AM 78.8 °F - 73.4 °F 83% 30.03 in 10.0 mi South 4.6 mph - N/A   Scattered Clouds
9:15 AM 80.6 °F 85.4 °F 73.4 °F 79% 30.02 in 10.0 mi South 8.1 mph - N/A   Scattered Clouds
9:35 AM 80.6 °F 85.4 °F 73.4 °F 79% 30.03 in 10.0 mi South 8.1 mph - N/A   Scattered Clouds
9:55 AM 80.6 °F 84.6 °F 71.6 °F 74% 30.03 in 10.0 mi SSW 5.8 mph - N/A   Scattered Clouds
10:15 AM 82.4 °F 87.2 °F 71.6 °F 70% 30.04 in 10.0 mi South 6.9 mph - N/A   Scattered Clouds
10:35 AM 82.4 °F 87.2 °F 71.6 °F 70% 30.04 in 10.0 mi South 8.1 mph - N/A   Scattered Clouds
10:55 AM 82.4 °F 87.2 °F 71.6 °F 70% 30.03 in 10.0 mi SSE 4.6 mph - N/A   Scattered Clouds
11:15 AM 82.4 °F 87.2 °F 71.6 °F 70% 30.03 in 10.0 mi ESE 5.8 mph - N/A   Scattered Clouds
11:35 AM 82.4 °F 87.2 °F 71.6 °F 70% 30.03 in 10.0 mi SSE 5.8 mph - N/A   Mostly Cloudy
11:55 AM 86.0 °F 91.8 °F 71.6 °F 62% 30.03 in 10.0 mi SE 8.1 mph - N/A   Mostly Cloudy
12:15 PM 84.2 °F 89.6 °F 71.6 °F 66% 30.02 in 10.0 mi SSE 5.8 mph 10.4 mph N/A   Scattered Clouds
12:35 PM 86.0 °F 91.8 °F 71.6 °F 62% 30.01 in 10.0 mi South 8.1 mph - N/A   Scattered Clouds
12:55 PM 86.0 °F 91.8 °F 71.6 °F 62% 30.01 in 10.0 mi SE 10.4 mph - N/A   Scattered Clouds
1:15 PM 86.0 °F 91.8 °F 71.6 °F 62% 30.01 in 10.0 mi SSE 9.2 mph - N/A   Scattered Clouds
1:35 PM 86.0 °F 91.8 °F 71.6 °F 62% 30.01 in 10.0 mi SSE 11.5 mph - N/A   Scattered Clouds
1:55 PM 86.0 °F 90.4 °F 69.8 °F 58% 30.01 in 10.0 mi SE 11.5 mph - N/A   Scattered Clouds
2:15 PM 86.0 °F 91.8 °F 71.6 °F 62% 30.00 in 10.0 mi SE 11.5 mph - N/A   Scattered Clouds
2:35 PM 86.0 °F 91.8 °F 71.6 °F 62% 30.00 in 10.0 mi SSE 11.5 mph 17.3 mph N/A   Scattered Clouds
2:55 PM 86.0 °F 91.8 °F 71.6 °F 62% 29.99 in 10.0 mi South 11.5 mph - N/A   Clear
3:15 PM 86.0 °F 90.4 °F 69.8 °F 58% 29.99 in 10.0 mi SSE 12.7 mph 18.4 mph N/A   Clear
3:35 PM 86.0 °F 90.4 °F 69.8 °F 58% 29.98 in 10.0 mi SSE 10.4 mph - N/A   Clear
3:55 PM 86.0 °F 90.4 °F 69.8 °F 58% 29.98 in 10.0 mi SSE 9.2 mph - N/A   Clear
4:15 PM 86.0 °F 90.4 °F 69.8 °F 58% 29.98 in 10.0 mi South 8.1 mph - N/A   Clear
4:35 PM 86.0 °F 90.4 °F 69.8 °F 58% 29.98 in 10.0 mi SSE 6.9 mph - N/A   Scattered Clouds
4:55 PM 86.0 °F 90.4 °F 69.8 °F 58% 29.98 in 10.0 mi SSE 10.4 mph - N/A   Scattered Clouds
5:15 PM 84.2 °F 89.6 °F 71.6 °F 66% 29.98 in 10.0 mi South 8.1 mph - N/A   Clear
5:35 PM 82.4 °F 87.2 °F 71.6 °F 70% 29.98 in 10.0 mi SSE 10.4 mph - N/A   Scattered Clouds
5:55 PM 84.2 °F 89.6 °F 71.6 °F 66% 29.98 in 10.0 mi South 8.1 mph - N/A   Mostly Cloudy
6:15 PM 82.4 °F 87.2 °F 71.6 °F 70% 29.97 in 10.0 mi SSE 12.7 mph - N/A   Mostly Cloudy
6:35 PM 82.4 °F 87.2 °F 71.6 °F 70% 29.97 in 10.0 mi SSE 10.4 mph - N/A   Mostly Cloudy
7:15 PM 80.6 °F 84.6 °F 71.6 °F 74% 29.96 in 10.0 mi SSE 9.2 mph - N/A   Scattered Clouds
7:35 PM 78.8 °F - 71.6 °F 78% 29.96 in 10.0 mi South 6.9 mph - N/A   Scattered Clouds
7:55 PM 78.8 °F - 71.6 °F 78% 29.96 in 10.0 mi SSE 5.8 mph - N/A   Clear
8:15 PM 77.0 °F - 71.6 °F 83% 29.96 in 10.0 mi SSE 5.8 mph - N/A   Clear
8:35 PM 77.0 °F - 73.4 °F 89% 29.96 in 10.0 mi SSE 8.1 mph - N/A   Clear
8:55 PM 77.0 °F - 71.6 °F 83% 29.96 in 10.0 mi South 4.6 mph - N/A   Clear
9:15 PM 75.2 °F - 71.6 °F 89% 29.96 in 10.0 mi South 3.5 mph - N/A   Clear
9:35 PM 75.2 °F - 71.6 °F 89% 29.96 in 10.0 mi SSE 3.5 mph - N/A   Clear
9:55 PM 75.2 °F - 71.6 °F 89% 29.96 in 10.0 mi SSE 3.5 mph - N/A   Clear
10:15 PM 73.4 °F - 71.6 °F 94% 29.97 in 10.0 mi SSE 4.6 mph - N/A   Clear
10:35 PM 73.4 °F - 71.6 °F 94% 29.98 in 10.0 mi Calm Calm - N/A   Clear
10:55 PM 73.4 °F - 71.6 °F 94% 29.99 in 10.0 mi Calm Calm - N/A   Clear
11:15 PM 71.6 °F - 71.6 °F 100% 29.99 in 10.0 mi Calm Calm - N/A   Clear
11:35 PM 73.4 °F - 71.6 °F 94% 29.98 in 10.0 mi South 4.6 mph - N/A   Scattered Clouds
11:55 PM 73.4 °F - 73.4 °F 100% 29.98 in 10.0 mi SSW 4.6 mph - N/A   Scattered Clouds